Regional Weather Roundup
Issued by NWS Kansas City/Pleasant Hill, MO

Home | Current Version | Previous Version | Graphics & Text | Print | Product List | Glossary Off
Versions: 1 2 3 4 5 6 7 8 9 10 11 12 13 14 15 16 17 18 19 20 21 22 23 24 25 26 27 28 29 30 31 32 33 34 35 36 37 38 39 40 41 42 43 44 45 46 47 48 49 50

000
ASUS43 KEAX 261104
RWREAX

WEATHER ROUNDUP FOR EASTERN KANSAS AND NORTHWEST MISSOURI
NATIONAL WEATHER SERVICE KANSAS CITY/PLEASANT HILL MO
500 AM CST MON JAN 26 2015

KSZ040-057-103>105-MOZ028-029-037-043-261200-
...KANSAS CITY METROPOLITAN AREA...

CITY           SKY/WX    TMP DP  RH WIND       PRES   REMARKS
K.C. INTL      CLEAR     24  22  91 S7        30.04F WCI  16
K.C. DOWNTOWN  CLEAR     28  25  88 SW3       30.06F
LEES SUMMIT    CLEAR     26  24  92 SW7       30.06F WCI  18
OLATHE - IXD   CLEAR     26  25  96 SW7       30.06F WCI  18
OLATHE - OJC   CLEAR     25  24  96 S3        30.05F FOG
LAWRENCE       PTCLDY    19  17  92 E3        30.06F

$$

MOZ001>008-011>017-020>025-030>033-038>040-044>046-053-054-261200-
...NORTHERN AND CENTRAL MISSOURI...

CITY           SKY/WX    TMP DP  RH WIND       PRES   REMARKS
ST. JOSEPH     CLEAR     22  21  96 S7        30.03F WCI  13
MOSBY          SUNNY     23  23 100 CALM      30.06F
WARRENSBURG    CLEAR     28  27  93 S3        30.07F
WHITEMAN AFB   CLEAR     27  25  91 SW7       30.06F WCI  19
CLINTON        CLEAR     30  28  93 SW6       30.09F WCI  24
SEDALIA        MOCLDY    30  26  85 W6        30.07F WCI  24
WARSAW         NOT AVBL
MARSHALL       MOCLDY    32  28  86 CALM      30.09S
CHILLICOTHE      N/A     31  27  85 SW5       30.03F WCI  26
MOBERLY        CLOUDY    30  25  80 SW6       30.05F WCI  24
KIRKSVILLE     CLOUDY    30  27  88 SW5       30.00F WCI  25

$$

MOZ041-047>049-056>058-063>065-088>090-097-261200-
...EASTERN AND SOUTHERN MISSOURI...

CITY           SKY/WX    TMP DP  RH WIND       PRES   REMARKS
ST. LOUIS INTL PTCLDY    25  19  78 W5        30.05R WCI  19
SPIRIT OF STL  CLEAR     26  21  81 W3        30.05R
COLUMBIA       CLOUDY    29  26  89 W5        30.05S WCI  24
JEFFERSON CITY CLOUDY    31  26  82 W5        30.09R WCI  26
MEXICO         CLEAR    N/A N/A N/A SW6       30.05R
HANNIBAL       CLOUDY    28  25  86 W3        30.04S
ROLLA          CLOUDY    29  26  89 W7        30.03S WCI  22
LEBANON        CLOUDY    32  28  86 NW6       30.06R WCI  26
OSAGE BEACH    CLOUDY    30  27  86 CALM      30.07R
SPRINGFIELD    CLOUDY    33  27  78 W5        30.08R WCI  29
NEVADA         CLEAR     27  27 100 SW5       30.11S WCI  21
JOPLIN         CLEAR     27  25  92 SW3       30.12S
WEST PLAINS    CLOUDY    32  27  81 NW12G18   30.04F WCI  23

$$

IAZ060-094-KSZ022-034>040-054-083-096-NEZ052-066-093-261200-
...KANSAS...SOUTHEAST NEBRASKA AND IOWA...

CITY           SKY/WX    TMP DP  RH WIND       PRES   REMARKS
TOPEKA         CLEAR     24  23  96 CALM      30.05F FOG
MANHATTAN      CLEAR     29  27  92 SW8       30.03F WCI  21
EMPORIA        MOCLDY    30  27  88 SW8       30.06F WCI  22
CHANUTE        CLEAR     24  24 100 CALM      30.10F
WICHITA        PTCLDY    29  25  85 SW9       30.09F WCI  20
OMAHA          CLEAR     27  25  92 SE8       29.95F WCI  19
LINCOLN        CLEAR     29  26  89 S5        29.95F WCI  24
FALLS CITY     CLEAR     29  26  89 SW6       29.99F WCI  23
LAMONI         MOCLDY    29  26  89 SW10      29.99F WCI  20
DES MOINES     CLOUDY    32  26  78 W6        30.00R WCI  26

$$



USA.gov is the U.S. government's official web portal to all federal, state and local government web resources and services.